Flag for United Kingdom Weather past 2 weeks in Wakefield, England, United Kingdom

Now
52 °F

Scattered clouds.


Feels Like: 47 °F
Forecast: 50 / 58 °F
Wind: 15 mph from Southwest

Location: Leeds And Bradford

Current Time: Oct 25, 2014 at 1:42:57 PM

Latest Report: Oct 25, 2014 at 1:20 PM


Visibility: N/A

Pressure: 29.89 "Hg

Humidity: 88%

Dew point: 48 °F

Location of WakefieldLocation

Historic Weather in Wakefield — Graph

°F

Wakefield temperature yesterday

Maximum temperature yesterday: 55 °F (at 12:20 AM)
Minimum temperature yesterday: 46 °F (at 7:50 PM)
Average temperature yesterday: 51 °F

Past Weeks' High & Low Weather Summary

 TemperatureHumidityPressure
High63 °F (Oct 17, 12:50 PM)100% (Oct 11, 12:50 AM)30.18 "Hg (Oct 11, 12:50 AM)
Low41 °F (Oct 11, 7:50 AM)53% (Oct 21, 4:50 PM)29.27 "Hg (Oct 21, 5:20 AM)
Average51 °F90%29.77 "Hg
* Reported Oct 10 12:20 PM — Oct 25 12:50 PM, Wakefield, Weather by CustomWeather, © 2014

Note: Actual official high and low records may vary slightly from our data, if they occured in-between our weather recording intervals... More about our weather records

Advertising

Wakefield weather history for previous 24 hours

 ConditionsComfort  
Time TempWeatherWind HumidityBarometerVisibility
12:50 PM
Oct 25
50 °FScattered showers. Scattered clouds.12 mph94%29.89 "HgN/A
12:20 PM50 °FScattered clouds.15 mph94%29.89 "HgN/A
11:50 AM52 °FScattered clouds.20 mph82%29.89 "HgN/A
11:20 AM50 °FScattered clouds.16 mph88%29.89 "HgN/A
10:50 AM50 °FSprinkles. Scattered clouds.17 mph88%29.89 "HgN/A
10:20 AM50 °FScattered clouds.15 mph88%29.89 "HgN/A
9:50 AM48 °FScattered clouds.9 mph94%29.89 "HgN/A
9:20 AM48 °FPassing clouds.7 mph87%29.89 "HgN/A
8:50 AM46 °FPassing clouds.5 mph93%29.89 "HgN/A
8:20 AM45 °FPassing clouds.8 mph100%29.89 "HgN/A
7:50 AM45 °FPassing clouds.7 mph93%29.89 "HgN/A
7:20 AM45 °FPassing clouds.7 mph93%29.89 "HgN/A
6:50 AM45 °FPassing clouds.9 mph93%29.89 "HgN/A
6:20 AM43 °FPassing clouds.7 mph100%29.89 "HgN/A
5:50 AM43 °FPassing clouds.8 mph93%29.89 "HgN/A
5:20 AM45 °FPassing clouds.6 mph93%29.89 "HgN/A
4:50 AM45 °FPassing clouds.6 mph93%29.89 "HgN/A
4:20 AM45 °FPassing clouds.7 mph93%29.89 "HgN/A
3:50 AM46 °FClear.10 mph87%29.86 "Hg10 mi
3:20 AM46 °FClear.9 mph87%29.89 "Hg10 mi
2:50 AM45 °FPassing clouds.12 mph93%29.89 "HgN/A
2:20 AM45 °FPassing clouds.8 mph93%29.89 "HgN/A
1:50 AM45 °FPassing clouds.8 mph93%29.89 "HgN/A
1:20 AM46 °FPassing clouds.8 mph87%29.89 "HgN/A
12:50 AM46 °FPassing clouds.8 mph93%29.89 "HgN/A
12:20 AM46 °FPassing clouds.7 mph87%29.89 "HgN/A
11:50 PM
Oct 24
46 °FPassing clouds.8 mph93%29.89 "HgN/A
11:20 PM48 °FPassing clouds.8 mph82%29.89 "HgN/A
10:50 PM48 °FPassing clouds.6 mph87%29.89 "HgN/A
10:20 PM46 °FPassing clouds.6 mph87%29.89 "HgN/A
9:50 PM48 °FPassing clouds.3 mph87%29.89 "HgN/A
9:20 PM48 °FPassing clouds.6 mph87%29.86 "HgN/A
8:50 PM48 °FPassing clouds.6 mph82%29.86 "HgN/A
8:20 PM46 °FPassing clouds.3 mph87%29.86 "HgN/A
7:50 PM46 °FPassing clouds.3 mph82%29.86 "HgN/A
7:20 PM48 °FPassing clouds.7 mph76%29.86 "HgN/A
6:50 PM48 °FPassing clouds.7 mph76%29.83 "HgN/A
6:20 PM48 °FScattered clouds.10 mph76%29.83 "HgN/A
5:50 PM50 °FScattered clouds.8 mph76%29.83 "HgN/A
5:20 PM52 °FScattered clouds.12 mph72%29.83 "HgN/A
4:50 PM52 °FScattered clouds.13 mph72%29.83 "HgN/A
4:20 PM52 °FScattered clouds.13 mph72%29.83 "HgN/A
3:50 PM52 °FScattered clouds.15 mph77%29.83 "HgN/A
3:20 PM54 °FScattered clouds.14 mph67%29.83 "HgN/A
2:50 PM54 °FScattered clouds.12 mph72%29.83 "HgN/A
2:20 PM54 °FScattered clouds.10 mph77%29.83 "HgN/A
1:50 PM55 °FScattered clouds.10 mph72%29.86 "HgN/A
1:20 PM55 °FScattered clouds.9 mph72%29.86 "HgN/A
Weather by CustomWeather, © 2014

See weather overviewHow to use our weather pages